This demonstration page uses our WeatherBlox Daily Observations layout. Learn more.

Left ArrowRight Arrow

39.51506, -84.39828

Hourly Observations for April 17, 2016

Temp ( °F °C ) Dew Point ( °F °C ) Humidity (%) Winds ( mph kmh ) Pressure ( in mb ) Visibility ( mi km ) Precip ( " mm )
12:15 am 00:15 Clear 53 11.6 44 6.9 73 73 undefined N/A 30.33 1027 10 16 N/A
12:35 am 00:35 Clear 52 11 43 6 72 72 undefined N/A 30.33 1027 10 16 N/A
12:55 am 00:55 Clear 52 11 44 6.7 75 75 undefined N/A 30.33 1027 10 16 N/A
1:15 am 01:15 Clear 51 10.3 43 6.3 76 76 undefined N/A 30.33 1027 10 16 N/A
1:35 am 01:35 Clear 49 9.6 42 5.6 76 76 undefined N/A 30.36 1028 10 16 N/A
1:55 am 01:55 Clear 49 9.6 42 5.7 77 77 undefined N/A 30.36 1028 10 16 N/A
2:15 am 02:15 Clear 49 9.6 43 6.1 79 79 undefined N/A 30.36 1028 10 16 N/A
2:35 am 02:35 Clear 49 9.6 43 6.2 80 80 undefined N/A 30.36 1028 10 16 N/A
2:55 am 02:55 Clear 49 9.6 44 6.8 83 83 N N/A 30.36 1028 10 16 N/A
3:15 am 03:15 Clear 49 9.6 43 6 78 78 undefined N/A 30.36 1028 10 16 N/A
3:35 am 03:35 Clear 49 9.6 43 6.1 79 79 undefined N/A 30.36 1028 10 16 N/A
3:55 am 03:55 Clear 49 9.6 43 6.2 80 80 undefined N/A 30.36 1028 10 16 N/A
4:15 am 04:15 Clear 48 8.8 42 5.4 79 79 undefined N/A 30.36 1028 10 16 N/A
4:35 am 04:35 Clear 47 8.2 42 5.5 83 83 undefined N/A 30.36 1028 10 16 N/A
4:55 am 04:55 Clear 44 6.9 40 4.4 84 84 undefined N/A 30.36 1028 10 16 N/A
5:15 am 05:15 Clear 46 7.5 40 4.5 81 81 undefined N/A 30.36 1028 10 16 N/A
5:35 am 05:35 Clear 44 6.5 40 4.2 85 85 undefined N/A 30.39 1029 10 16 N/A
5:55 am 05:55 Clear 47 8.1 42 5.5 84 84 undefined N/A 30.39 1029 10 16 N/A
6:15 am 06:15 Clear 44 6.7 40 4.4 85 85 undefined N/A 30.42 1030 10 16 N/A
6:35 am 06:35 Clear 44 6.8 40 4.5 85 85 undefined N/A 30.42 1030 10 16 N/A
6:55 am 06:55 Clear 43 6 38 3.5 84 84 undefined N/A 30.42 1030 10 16 N/A
7:15 am 07:15 Sunny 42 5.7 38 3.5 86 86 undefined N/A 30.42 1030 10 16 N/A
7:35 am 07:35 Sunny 43 6.2 39 4.1 87 87 undefined N/A 30.45 1031 10 16 N/A
7:55 am 07:55 Sunny 49 9.3 45 7 86 86 undefined N/A 30.42 1030 10 16 N/A
8:15 am 08:15 Sunny 49 9.7 44 6.9 83 83 undefined N/A 30.42 1030 10 16 N/A
8:35 am 08:35 Sunny 55 12.5 47 8.2 75 75 NNE 3 6 30.42 1030 10 16 N/A
8:55 am 08:55 Sunny 55 12.5 46 7.7 73 73 NNE 3 6 30.42 1030 10 16 N/A
9:15 am 09:15 Sunny 57 13.9 46 7.6 66 66 NNE 3 6 30.42 1030 10 16 N/A
9:35 am 09:35 Sunny 61 15.9 45 7.1 56 56 N 5 7 30.42 1030 10 16 N/A
9:55 am 09:55 Sunny 63 17.1 43 6.1 49 49 undefined N/A 30.42 1030 10 16 N/A
10:15 am 10:15 Sunny 66 19.1 40 4.7 39 39 undefined N/A 30.42 1030 10 16 N/A
10:35 am 10:35 Sunny 69 20.8 43 6 38 38 undefined N/A 30.39 1029 10 16 N/A
10:55 am 10:55 Sunny 69 20.8 41 4.8 35 35 undefined N/A 30.39 1029 10 16 N/A
11:15 am 11:15 Sunny 71 21.6 38 3.6 31 31 undefined N/A 30.39 1029 10 16 N/A
11:35 am 11:35 Sunny 74 23.6 41 4.8 30 30 undefined N/A 30.39 1029 10 16 N/A
11:55 am 11:55 Sunny 74 23.6 38 3.3 27 27 undefined N/A 30.39 1029 10 16 N/A
12:15 pm 12:15 Sunny 74 23.6 30 -0.9 20 20 N N/A 30.39 1029 10 16 N/A
12:35 pm 12:35 Sunny 77 25.1 31 -0.7 18 18 undefined N/A 30.39 1029 10 16 N/A
12:55 pm 12:55 Sunny 77 25.1 27 -2.7 16 16 ENE 6 9 30.36 1028 10 16 N/A
1:15 pm 13:15 Sunny 78 25.5 23 -5.1 13 13 ENE 7 11 30.36 1028 10 16 N/A
1:35 pm 13:35 Sunny 80 26.5 29 -1.7 16 16 undefined N/A 30.36 1028 10 16 N/A
1:55 pm 13:55 Sunny 80 26.5 27 -2.6 15 15 E 6 9 30.36 1028 10 16 N/A
2:15 pm 14:15 Sunny 80 26.5 24 -4.5 13 13 undefined N/A 30.33 1027 10 16 N/A
2:35 pm 14:35 Sunny 80 26.5 28 -2.2 15 15 undefined N/A 30.33 1027 10 16 N/A
2:55 pm 14:55 Sunny 81 27 30 -0.9 16 16 NNE 8 13 30.33 1027 10 16 N/A
3:15 pm 15:15 Sunny 80 26.5 28 -2.2 15 15 NNE 3 6 30.33 1027 10 16 N/A
3:35 pm 15:35 Sunny 81 27 27 -3 14 14 undefined N/A 30.33 1027 10 16 N/A
3:55 pm 15:55 Sunny 81 27.2 25 -3.9 13 13 SE 5 7 30.33 1027 10 16 N/A
4:15 pm 16:15 Sunny 81 27.2 24 -4.3 12 12 N 8 13 30.30 1026 10 16 N/A
4:35 pm 16:35 Sunny 81 27.2 27 -3 14 14 E 9 15 30.30 1026 10 16 N/A
4:55 pm 16:55 Sunny 81 27.2 27 -3 14 14 NNE 5 7 30.30 1026 10 16 N/A
5:15 pm 17:15 Sunny 81 27.2 25 -4.1 12 12 NNE 5 7 30.30 1026 10 16 N/A
5:35 pm 17:35 Sunny 81 27.2 28 -2.3 14 14 undefined N/A 30.30 1026 10 16 N/A
5:55 pm 17:55 Sunny 81 27.2 25 -4.1 12 12 SSE 5 7 30.30 1026 10 16 N/A
6:15 pm 18:15 Sunny 81 27.2 26 -3.1 13 13 E 5 7 30.30 1026 10 16 N/A
6:35 pm 18:35 Sunny 80 26.6 27 -2.7 14 14 N N/A 30.30 1026 10 16 N/A
6:55 pm 18:55 Sunny 80 26.5 26 -3.2 14 14 E 6 9 30.30 1026 10 16 N/A
7:15 pm 19:15 Sunny 80 26.5 26 -3.5 14 14 undefined N/A 30.30 1026 10 16 N/A
7:35 pm 19:35 Sunny 79 25.9 29 -1.5 16 16 ESE 6 9 30.30 1026 10 16 N/A
7:55 pm 19:55 Sunny 77 25.1 26 -3.3 15 15 ESE 3 6 30.30 1026 10 16 N/A
8:15 pm 20:15 Sunny 77 25.1 30 -1.2 18 18 ESE 3 6 30.30 1026 10 16 N/A
8:35 pm 20:35 Clear 69 20.8 46 7.6 43 43 undefined N/A 30.30 1026 10 16 N/A
8:55 pm 20:55 Clear 62 16.8 46 7.9 56 56 undefined N/A 30.33 1027 10 16 N/A
9:15 pm 21:15 Clear 62 16.6 43 6.3 51 51 undefined N/A 30.33 1027 10 16 N/A
9:35 pm 21:35 Clear 60 15.5 45 7.4 59 59 undefined N/A 30.33 1027 10 16 N/A
9:55 pm 21:55 Clear 60 15.3 44 6.9 58 58 undefined N/A 30.33 1027 10 16 N/A
10:15 pm 22:15 Clear 60 15.3 49 9.2 67 67 NE 3 6 30.33 1027 10 16 N/A
10:35 pm 22:35 Clear 58 14.3 44 6.6 60 60 N N/A 30.36 1028 10 16 N/A
10:55 pm 22:55 Clear 57 13.8 43 6 60 60 N N/A 30.36 1028 10 16 N/A
11:15 pm 23:15 Clear 57 13.8 44 6.5 62 62 NNE 3 6 30.33 1027 10 16 N/A
11:35 pm 23:35 Clear 57 13.8 48 8.8 72 72 N N/A 30.33 1027 10 16 N/A
11:55 pm 23:55 Clear 55 12.5 46 7.5 72 72 N 3 6 30.33 1027 10 16 N/A

Powered by AerisWeather